User: anonymous   Login
Location: B�rgermoos
(47.6500°N, 9.0667°E)
Time: 00:38:06
(UTC+00:00)
Language:

Okean 2 - Orbit

View from above orbital plane
View from above orbital plane
View from above satellite
View from above satellite

Ground track
Ground track

The orbit data is extracted from the following two-line orbital elements,

1 20510U 90018A   20336.42026448  .00000496  00000-0  38057-4 0  9996
2 20510  82.5174  37.8373 0013035  39.5630 330.7271 14.99565165670711
Epoch (UTC): 01 December 2020 10:05:10
Eccentricity: 0.0013035
inclination: 82.5174°
perigee height: 559 km
apogee height: 577 km
right ascension of ascending node: 37.8373°
argument of perigee: 39.5630°
revolutions per day: 14.99565165
mean anomaly at epoch: 330.7271°
orbit number at epoch: 67071

The dashed part of the orbit path shows where the satellite is in the earth's shadow,  

DLR